Regional Weather Roundup
Issued by NWS Grand Forks, ND

Home | Current Version | Previous Version | Text Only | Print | Product List | Glossary On
Versions: 1 2 3 4 5 6 7 8 9 10 11 12 13 14 15 16 17 18 19 20 21 22 23 24 25 26 27 28 29 30 31 32 33 34 35 36 37 38 39 40 41 42 43 44 45 46 47 48 49 50
000
ASUS43 KFGF 302031
RWRFGF
PRAIRIE TO PINES  WEATHER ROUNDUP
NATIONAL WEATHER SERVICE EASTERN NORTH DAKOTA/GRAND FORKS ND
200 PM CST FRI JAN 30 2015

 **SATELLITE DATA USED TO AUGMENT SKY COVER AT AUTOMATED STATIONS**
 *****  WEATHER ACROSS EASTERN NORTH DAKOTA  *****

CITY           SKY/WX    TMP DP  RH WIND       PRES   REMARKS
GRAND FORKS    PTSUNNY   30  19  63 S12       30.14F WCI  20
GRAND FRKS AFB SUNNY     31  19  62 S13       30.13F WCI  21
GRAND FRKS NWS   N/A     30 N/A N/A S9          N/A  WCI  22
DEVILS LAKE    SUNNY     32  23  69 W15       30.08F WCI  22
FARGO          MOSUNNY   30  19  63 S15G25    30.16F WCI  19
WAHPETON ARPT  PTCLDY    30  23  74 S18       30.18F WCI  18
$$

 ***** WEATHER ACROSS CENTRAL AND WESTERN NORTH DAKOTA  *****

CITY           SKY/WX    TMP DP  RH WIND       PRES   REMARKS
BISMARCK       SUNNY     44  28  53 W10G16    30.13F
MINOT          PTSUNNY   31  26  82 NW18G28   30.13S WCI  19
JAMESTOWN      SUNNY     37  24  59 W13       30.09F
MINOT AFB      CLOUDY    29  29  99 NW18      30.13R WCI  16
GARRISON         N/A     40  30  67 NW18      30.12F
WILLISTON      SUNNY     39  26  59 NW10      30.19F
DICKINSON      SUNNY     46  27  47 NW15      30.13F
HETTINGER      SUNNY     49  25  39 NW12      30.15F
$$

 *****  OTHER AIRPORT OBSERVATIONS IN OUR AREA  *****

CITY           SKY/WX    TMP DP  RH WIND       PRES   REMARKS
WALHALLA         N/A     25  23  93 SE6       30.11F WCI  18
GRAFTON AIRPOR NOT AVBL
VALLEY CITY AR FAIR      36  27  69 SW15      30.10F
CANDO          FAIR      30  21  69 NW10      30.09S WCI  21
CAVALIER APRT  FAIR      25  18  74 S12       30.11F WCI  14
GWINNER        CLEAR     37  30  75 SW16      30.14F
SHEYENNE NWR     N/A     36  24  61 S12       29.95S
ROLLA          FAIR      27  25  93 N16       30.08S WCI  14
 ***** THE ABOVE OBSERVATIONS ARE NON NWS ARE NOT QUALITY
       CONTROLLED AND MAY MIS-REPORT RAIN FOR SNOW...
$$

  *****  WEATHER ACROSS NORTHERN MINNESOTA  *****

CITY           SKY/WX    TMP DP  RH WIND       PRES   REMARKS
FLAG ISLAND    FLURRIES   9   5  85 S17       30.16F WCI -10
WARROAD        CLOUDY    18  10  73 S6        30.16F WCI   9
ROSEAU         CLOUDY    18  12  79 S13       30.15F WCI   4
HALLOCK        PTSUNNY   21  18  86 S14       30.14F WCI   8
THF RVR FALLS  CLOUDY    21  16  79 S12       30.15F WCI   9
BAUDETTE       LGT SNOW  13   7  77 S9        30.15F WCI   1
WASKISH        PTSUNNY   18   9  68 SE9       30.19F WCI   6
CROOKSTON      MOSUNNY   27  19  74 S16       30.17F WCI  14
STEPHEN NDAWN    N/A     23  18  80 S14         N/A  WCI  11
GREENBUSH NDAW   N/A     19  16  86 S12         N/A  WCI   7
$$
  *****  WEATHER ACROSS CENTRAL AND WEST MINNESOTA  *****

CITY           SKY/WX    TMP DP  RH WIND       PRES   REMARKS
FOSSTON        CLOUDY    21  18  86 S9        30.14F WCI  11
BEMIDJI        CLOUDY    17  11  75 SE9       30.18F WCI   6
PARK RAPIDS    CLOUDY    22  12  65 S10       30.20F WCI  11
ELBOW LAKE     FAIR      24  19  79 S20       30.19F WCI  10
WADENA         CLOUDY    19  14  79 S10       30.20F WCI   8
DETROIT LAKES  SUNNY     23  19  86 S16G22    30.16F WCI  10
MOORHEAD       MOSUNNY   28  23  80 S18G28    30.17F WCI  16
FERGUS FALLS   MOSUNNY   25  18  74 S18       30.22F WCI  11
MORRIS MN      MOSUNNY   27  21  80 SE21G26   30.20F WCI  13
STAPLES        CLOUDY    21  12  68 SE10G17   30.23F WCI  10
$$
  *****  WEATHER ELSEWHERE ACROSS MINNESOTA  *****

CITY           SKY/WX    TMP DP  RH WIND       PRES   REMARKS
DULUTH         CLOUDY    13   2  61 SW7       30.30F WCI   3
INTRNTL FALLS  LGT SNOW   9   3  77 SE8       30.23F WCI  -3
ELY            LGT SNOW   9   3  78 S7        30.28F WCI  -3
CLOQUET        CLOUDY    16   1  53 S8        30.30F WCI   5
WHEATON        SUNNY     30  23  74 S15       30.21F WCI  19
BRAINERD       PTSUNNY   22  10  60 S10       30.27F WCI  11
HIBBING        CLOUDY    13   2  61 S6        30.28F WCI   4
ALEXANDRIA     CLOUDY    19  15  84 S16       30.24F WCI   4
SAINT CLOUD    SUNNY     22  11  62 S12G21    30.33F WCI  10
MINNEAPOLIS    MOSUNNY   25  11  55 S7        30.39F WCI  17
$$

  *****  WEATHER ACROSS SOUTH DAKOTA  *****

CITY           SKY/WX    TMP DP  RH WIND       PRES   REMARKS
SIOUX FALLS    PTSUNNY   36  26  67 S15G25    30.26F
BROOKINGS      NOT AVBL
WATERTOWN      SUNNY     36  27  69 S14G25    30.16F
HURON          SUNNY     40  28  62 S14       30.19F
SISSETON         N/A     39  28  64 SW16      30.17F
ABERDEEN       SUNNY     38  27  64 S15       30.16F
MITCHELL       SUNNY     44  29  55 S18       30.21F
PIERRE         SUNNY     45  24  43 W6        30.13F
MOBRIDGE       SUNNY     42  27  55 CALM      30.11F
RAPID CITY     SUNNY     52  24  33 N18       30.13F
$$

  *****  SOME WEATHER IN NEARBY STATES *****

CITY           SKY/WX    TMP DP  RH WIND       PRES   REMARKS
GLASGOW MT       N/A    N/A N/A N/A VRB3      30.21F
GREAT FALLS MT SUNNY     47  18  31 SW9       30.17F
CHEYENNE WY    CLOUDY    46  25  43 N15       30.11F
SCOTTSBLUFF NE CLOUDY    41  28  60 NW6       30.14F
OMAHA NE       CLOUDY    35  22  58 S12       30.40F
DES MOINES IA  MOSUNNY   33  13  43 S10       30.44F WCI  25
DAVENPORT IA   SUNNY     28  15  58 NW7       30.49F WCI  21
CHICAGO IL     PTSUNNY   28   8  43 NW5       30.47F WCI  23
EAU CLAIRE WI  MOSUNNY   17   5  59 SW8       30.41F WCI   7
LA CROSSE WI   SUNNY     24   7  48 SE7       30.45F WCI  16
$$

  *****  SOME NATIONAL WEATHER *****

CITY           SKY/WX    TMP DP  RH WIND       PRES   REMARKS
LA GUARDIA NY  PTSUNNY   37  21  52 NW22G28   29.83R
RALEIGH NC     MOSUNNY   47  15  27 VRB7G21   30.10R
ATLANTA GA     MOSUNNY   50  21  32 N17G24    30.26F
NEW ORLEANS LA PTSUNNY   57  37  47 N10       30.34F
OKLAHOMA CITY  CLOUDY    47  22  37 E5        30.40F
ALBUQUERQUE NM FOG       34  33  96 N10       30.17F VSB 1/2
SALT LAKE CITY CLOUDY    43  35  73 N6        30.06F
LOS ANGELES CA CLOUDY    67  48  50 CALM      29.89F
BOISE ID       SUNNY     41  34  76 N9        30.25F
SEATTLE WA     MOSUNNY   43  39  86 W3        30.29F FOG
$$

*** WEATHER ACROSS MANITOBA...SASKATCHEWAN AND ONTARIO ***
                ***ONTARIO***

CITY           SKY/WX    TMP DP  RH WIND       PRES   REMARKS
GERALDTON      MOSUNNY    1 -11  55 W6        30.28F WCI -10
THUNDER BAY    PTSUNNY   12  -4  48 CALM      30.37F
SIOUX LOOKOUT  LGT SNOW   5  -2  72 S8        30.22F WCI  -8
TORONTO        MOSUNNY   12   0  57 N24G31    30.28R WCI  -8
BIG TROUT LK   LGT SNOW   0  -9  65 SW8       30.11F WCI -15
PICKLE LAKE    PTSUNNY    1  -9  60 SW8       30.19F WCI -12
DRYDEN         FLURRIES   5   1  85 S12       30.19F WCI -11
KENORA         LGT SNOW   7   3  85 S8        30.15F WCI  -6
$$
                *** MANITOBA***

CITY           SKY/WX    TMP DP  RH WIND       PRES   REMARKS
BRANDON        FLURRIES  19  16  86 NW14      30.12S WCI   6
DAUPHIN        CLOUDY    19  14  79 W13       30.16R WCI   7
ISLAND LAKE    FLURRIES   1  -4  78 W6        30.12F WCI -10
PILOT MOUND      N/A     23  18  80 W9          N/A  WCI  13
THE PAS        MOSUNNY    5  -2  72 NW10G17   30.27R WCI -10
THOMPSON       MOSUNNY   -2 -13  60 NW14      30.17R WCI -21
WINNIPEG       CLOUDY    16  10  79 S13       30.15F WCI   2
LYNN LAKE      FLURRIES -11 -20  64 NW13G24   30.24R WCI -32
CHURCHILL      CRYSTALS -20 -27  69 NW24G31   30.14R BLWGSNOWWCI -51
GILLAM         MOSUNNY   -9 -18  64 NW10      30.13R WCI -28
$$
                ***SASKATCHEWAN***

CITY           SKY/WX    TMP DP  RH WIND       PRES   REMARKS
ESTEVAN        MOSUNNY   27  23  86 NW16      30.18S WCI  14
KINDERSLEY     CLOUDY    21  21 100 NE5       30.24F FOG     WCI  15
LLOYDMINSTER   CLOUDY    19  18  93 NE6       30.26S WCI  11
PRINCE ALBERT  FLURRIES  14   9  79 N15       30.30R WCI  -1
REGINA         PTSUNNY   21  18  86 NW14      30.22S WCI   8
YORKTON        PTSUNNY   19  14  79 NW16      30.18R WCI   5
N. BATTLEFORD  CLOUDY    19  16  86 N8        30.30S WCI   9
LA RONGE       MOSUNNY    7  -2  66 W10G17    30.36S WCI  -8
SASKATOON      CLOUDY    19  16  86 N10       30.28F WCI   8
SWIFT CURRENT  MOSUNNY   28  28 100 W5        30.19F WCI  23
$$
NOTE: THESE ARE AUTOMATED STATIONS WITH LIMITED QUALITY CONTROL
      "FAIR" INDICATES FEW OR NO CLOUDS BELOW 12,000 FEET WITH NO
      SIGNIFICANT WEATHER AND/OR OBSTRUCTIONS TO VISIBILITY.
      SKY/WX - SKY CONDITION AND SIGNIFICANT WEATHER.
      TMP - AIR TEMPERATURE.    DP   - DEWPOINT TEMPERATURE.
      RH  - RELATIVE HUMIDITY.  PRES - PRESSURE.
      HX  - HEAT INDEX.         WCI  - WIND CHILL INDEX.
$


USA.gov is the U.S. government's official web portal to all federal, state and local government web resources and services.